www.pogodaiklimat.ru

Погода и климат >> Архив погоды >> Россия >> Ставропольский край >> Ставрополь


АРХИВ ПОГОДЫ в Ставрополе

Время (UTC), дата Ветер
(напр.,м/с)
 
Видим.   Явления Облачность Т
(С)
Тd
(С)
f
(%)
Тe
(С)
Тes
(С)
Комфортность P
(гПа)
Po
(гПа)
Тmin
(С)
Tmax
(С)
R
(мм)
R24
(мм)
S
(см)
00 13.06 В 4 20 км 3/0
[Ac trans]
+17.1 +8.9 58 +17 +17 тепло 1010.0 958.2
03 13.06 С 2 20 км 3/0
[Ac trans]
+19.9 +8.7 48 +22 +23 комфорт 1009.2 957.9 +16.3
06 13.06 В 4 20 км 8/0
[Ac trans]
+24.0 +10.5 43 +25 +29 комфорт 1009.5 958.9
09 13.06 ЮВ 8
{10}
20 км 8/1 600 м
[Cu hum Ci fib]
+27.6 +12.0 38 +29 +31 жарко 1009.2 959.2
12 13.06 В 6-10
{12}
20 км 9/4 600 м
[Cb calv Ac trans Ci fib]
+28.1 +11.3 35 +29 +31 жарко 1009.0 959.1
15 13.06 З 6
{10}
20 км слаб. ливневой дождь {гроза} 10/4 600 м
[Cb cap Ac und]
+20.0 +14.4 70 +22 +22 комфорт 1011.9 960.6 +30.0
18 13.06 ЮЗ 4 20 км {гроза, ливн. осадки} 9/3 1000 м
[Sc diur, vesp Ac trans]
+20.4 +12.6 61 +23 +23 комфорт 1012.4 961.1
21 13.06 С 2 20 км 8/3 1500 м
[Sc diur, vesp Ac trans]
+18.9 +13.0 69 +20 +20 тепло 1013.3 961.7
00 14.06 С 4 20 км 3/0
[Ac trans]
+19.6 +12.3 63 +21 +21 комфорт 1012.8 961.3
03 14.06 штиль 0 20 км 4/0
[Ac trans]
+18.5 +11.1 62 +19 +20 тепло 1014.1 962.4 +16.5
06 14.06 В 6 20 км 9/0
[Ci fib]
+23.3 +11.7 48 +26 +29 жарко 1014.3 963.3
09 14.06 В 8 20 км 9/0
[Ci fib]
+27.8 +10.3 34 +28 +31 жарко 1014.0 963.8
12 14.06 В 8-10
{10}
20 км 3/0
[Ci fib]
+29.6 +7.9 26 +29 +31 жарко 1012.9 963.0
15 14.06 В 8-10
{10}
20 км 3/0
[Ci fib]
+28.4 +8.4 28 +28 +28 жарко 1012.9 962.8 +29.9
18 14.06 В 4 20 км 3/0
[Ac trans Ci fib]
+23.2 +8.0 38 +24 +24 комфорт 1014.0 963.0
21 14.06 В 4 20 км 3/0
[Ci fib]
+19.9 +12.5 62 +22 +22 комфорт 1014.2 962.7
00 15.06 В 4 20 км 3/0
[Ci fib]
+18.1 +14.6 80 +18 +18 тепло 1013.9 962.1
03 15.06 В 2 20 км 3/0
[Ci sp]
+18.5 +15.6 83 +20 +21 тепло 1014.2 962.5 +16.6
06 15.06 В 4 20 км 8/0
[Ci]
+24.4 +14.6 54 +27 +33 жарко 1013.3 962.6
09 15.06 ЮВ 8-10
{10}
20 км 8/0
[Ci]
+28.0 +9.1 31 +28 +31 жарко 1011.7 961.6
12 15.06 ЮВ 8-10
{10}
20 км 6/0
[Ci fib]
+30.3 +7.3 24 +29 +31 жарко 1009.8 960.1
15 15.06 ЮВ 4 20 км 5/0
[Ci fib]
+29.3 +5.5 22 +28 +29 жарко 1009.8 959.9 +30.6
18 15.06 В 4 20 км 3/0
[Ci fib]
+21.8 +6.7 38 +23 +23 комфорт 1010.9 959.8
21 15.06 В 4 20 км 5/0
[Ci]
+20.5 +7.1 42 +22 +22 комфорт 1010.8 959.5
00 16.06 Ю 2 20 км 8/0
[Ac trans Ci fib]
+20.0 +7.9 46 +22 +22 комфорт 1010.6 959.2
03 16.06 ЮВ 2 20 км 6/0
[Ac trans Ci fib]
+21.1 +11.6 55 +23 +24 комфорт 1009.9 958.8 +18.3
06 16.06 В 4 20 км 3/0
[Ci fib]
+27.3 +5.1 24 +26 +33 жарко 1009.2 959.1
09 16.06 В 6 20 км 3/0
[Ci fib]
+31.1 +1.1 15 +28 +35 жарко 1007.9 958.4
12 16.06 В 4 20 км 3/0
[Ac trans]
+32.1 +2.1 15 +29 +36 жарко 1006.8 957.5
15 16.06 В 4 20 км 5/3 1000 м
[Sc diur, vesp Ac trans]
+30.8 +5.4 20 +29 +30 жарко 1006.8 957.3 +32.3
18 16.06 ЮЗ 4 20 км 8/0
[Ac trans Ci fib]
+23.8 +12.1 48 +26 +26 жарко 1007.3 956.8
21 16.06 З 4 20 км 3/0
[Ac trans]
+20.0 +11.6 58 +22 +22 комфорт 1007.7 956.5
00 17.06 З 4 20 км 3/0
[Ac trans]
+20.8 +13.5 63 +24 +24 комфорт 1007.5 956.5
03 17.06 С 2 20 км 4/0
[Ac trans Ci fib]
+19.6 +13.3 67 +22 +23 комфорт 1009.3 958.0 +18.3
06 17.06 С 4 20 км ясно +25.6 +12.6 44 +27 +35 жарко 1008.8 958.5
09 17.06 СВ 4 20 км 3/3 600 м
[Cu hum]
+29.0 +11.1 33 +30 +39 жарко 1008.7 958.9
12 17.06 С 4 20 км 5/5 600 м
[Cu hum]
+30.8 +8.2 24 +30 +34 жарко 1007.8 958.4
15 17.06 С 4 20 км 6/3 600 м
[Cu hum Ac trans Ci fib]
+29.2 +7.4 25 +28 +29 жарко 1008.3 958.5 +30.9
18 17.06 С 4 20 км 5/0
[Ac trans Ci fib]
+24.1 +9.4 39 +25 +25 комфорт 1010.3 959.6
21 17.06 СВ 4 20 км 3/0
[Ac trans]
+21.3 +9.9 48 +23 +23 комфорт 1011.1 959.9
00 18.06 СВ 2 20 км 3/0
[Ac trans]
+18.7 +10.0 57 +20 +20 тепло 1011.1 959.5
03 18.06 СВ 2 20 км ясно +20.7 +10.8 53 +23 +25 комфорт 1011.4 960.2 +17.9
06 18.06 В 4 20 км ясно +25.9 +10.4 38 +27 +34 жарко 1011.0 960.6
09 18.06 С 4 20 км 6/6 600 м
[Cu hum]
+28.1 +8.2 29 +28 +33 жарко 1010.3 960.3
12 18.06 В 4 20 км 1/1 1000 м
[Cu hum]
+31.1 +6.2 21 +29 +37 жарко 1008.8 959.3
15 18.06 С 4 20 км 1/1 1500 м
[Sc]
+29.7 +5.9 22 +28 +30 жарко 1008.8 959.1 +31.1
18 18.06 С 2 20 км 1/0
[Ac trans]
+25.2 +6.0 29 +25 +25 комфорт 1010.0 959.5
21 18.06 С 4 20 км 3/0
[Ci fib]
+21.6 +7.9 41 +23 +23 комфорт 1010.6 959.5
00 19.06 З 2 20 км ясно +18.2 +8.0 51 +19 +19 тепло 1010.9 959.1
03 19.06 штиль 0 20 км ясно +22.1 +10.9 49 +24 +26 комфорт 1010.0 959.1 +16.1
06 19.06 В 4 20 км ясно +28.1 +9.5 31 +28 +36 жарко 1009.2 959.2
09 19.06 С 4 20 км 5/5 600 м
[Cu hum]
+30.3 +6.9 23 +29 +36 жарко 1008.7 959.1
12 19.06 СВ 2 20 км 8/8 1000 м
[Cu hum]
+31.6 +6.0 20 +30 +32 жарко 1007.5 958.1
15 19.06 С 4 20 км 3/3 1000 м
[Sc diur, vesp]
+31.5 +6.3 21 +30 +31 жарко 1007.1 957.7 +33.5
18 19.06 С 4 20 км 3/0
[Ac trans]
+25.2 +6.1 29 +25 +25 комфорт 1009.0 958.5
21 19.06 СВ 4 20 км 3/0
[Ac trans]
+23.3 +5.1 31 +23 +23 комфорт 1009.3 958.5

 

Местоположение метеостанции Ставрополь (Ставропольский край, Россия): широта 45.12 долгота 42.08 высота над уровнем моря 452 м.

В архиве по умолчанию представлена погода в Ставрополе за последнюю неделю. Архивные данные за месяц целиком и за предыдущие месяцы, начиная с января 2011 года, Вы можете получить, выбрав интересующий диапазон дат из раскрывающегося списка и нажав кнопку "Ввод!".


*Определитесь, кто Вы:
робот инопланетянин человек

Внимание! Время в таблицах - всемирное. Для получения местного времени необходимо прибавить поправку, которая равна 3 ч.

Смотрите также архив погоды в соседних городах и на ближайших метеорологических станциях:

Погода в Изобильном (Ставропольский край, Россия) (41 км)
Погода в Невинномысске (Ставропольский край, Россия) (55 км)
Погода в Светлограде (Ставропольский край, Россия) (66 км)
Погода в Армавире (Краснодарский край, Россия) (77 км)
Погода в Новоалександровске (Ставропольский край, Россия) (81 км)
Погода в Александровском (Ставропольский край, Россия) (85 км)
Погода в Красногвардейском (Ставропольский край, Россия) (92 км)
Погода в Отрадной (Краснодарский край, Россия) (93 км)
Погода в Черкесске (Карачаево-Черкессия, Россия) (100 км)
Погода в Городовиковске (Калмыкия, Россия) (106 км)

Пояснения к столбцам:

Ветер - указаны скорость ветра в м/с - средняя за 10 мин, порывы в срок и между сроками (в фигурных скобках) и направление, откуда дует ветер: С - северный, СВ - северо-восточный, В - восточный, ЮВ - юго-восточный, Ю - южный, ЮЗ - юго-западный, З - западный, СЗ - северо-западный.
Видимость - горизонтальная дальность видимости в метрах или километрах. При видимости от 1 до 10 км при отсутствии осадков обычно наблюдается дымка, при ухудшении видимости до 1 км и менее - туман. В сухую погоду видимость может ухудшаться дымом, пылью или мглою.
Явления - указаны атмосферные явления, наблюдавшиеся в срок или в последний час перед сроком; фигурными скобками обозначены явления, наблюдавшиеся между сроками (за 1-3 часа до срока); квадратными скобками обозначены град или гололедные отложения с указанием их диаметра в мм.
Облачность - указаны через наклонную черту общая и нижняя облачность в баллах и высота нижней границы облаков в метрах; квадратными скобками обозначены формы облаков: Ci - перистые, Cs - перисто-слоистые, Cc - перисто-кучевые, Ac - высококучевые, As - высокослоистые, Sc - слоисто-кучевые, Ns - слоисто-дождевые, Cu - кучевые, Cb - кучево-дождевые. Подробнее классификацию облаков см. в Атласе облаков (PDF).
T - Температура воздуха - температура, измеренная на высоте 2 м над землей.
Td - Температура точки росы - температура, при понижении до которой содержащийся в воздухе водяной пар достигнет насыщения.
f - Относительная влажность воздуха - влажноcть воздуха, измеренная на высоте 2 м над землей.
Te - Эффективная температура - температура, которую ощущает одетый по сезону человек в тени. Характеристика душности погоды. При расчете учитывается влияние влажности воздуха и скорости ветра на теплоощущения человека.
Tes - Эффективная температура на солнце - температура, которую ощущает человек, с поправкой на солнечный нагрев. Характеристика знойности погоды. Зависит от высоты солнца над горизонтом, облачности и скорости ветра. Ночью, в пасмурную погоду, а также при ветре 12 м/с и более поправка равна нулю.
P - Атмосферное давление - приведенное к уровню моря атмосферное давление.
Po - Атмосферное давление - измеренное на уровне метеостанции атмосферное давление.
Tmin - Минимальная температура - минимум температуры воздуха на высоте 2 м над землей.
Tmax - Максимальная температура - максимум температуры воздуха на высоте 2 м над землей.
R - Количество осадков - Количество выпавших осадков за период времени, мм. При наведении курсора мыши на число - период времени, за который выпало указанное количество осадков.
R24 - Количество осадков - Количество выпавших осадков за 24 часа, мм.
S - Снежный покров - Высота снежного покрова, см. При наведении курсора мыши на число - состояние снежного покрова и степень покрытия местности в баллах.